When you browse on this site, cookies collect data to enhance your experience and personalize the content and advertising you see.
Visit our Privacy Policy to learn more. By continuing to use the site, you agree to this use of cookies and data.

Hourly Weather Griboedovo

Today, 9 July, Thursday

Time Temperature Precipitation Wind Pressure Humidity
00:00 +26°C° 0 mm 5 mps 743 mmHg 66%
01:00 +25°C° 0 mm 5 mps 743 mmHg 67%
02:00 +25°C° 0 mm 5 mps 743 mmHg 67%
03:00 +23°C° 0 mm 5 mps 742 mmHg 68%
04:00 +23°C° 0 mm 5 mps 742 mmHg 70%
05:00 +23°C° 0 mm 5 mps 742 mmHg 73%
06:00 +23°C° 0 mm 5 mps 742 mmHg 76%
07:00 +25°C° 0 mm 5 mps 742 mmHg 72%
08:00 +27°C° 0 mm 6 mps 742 mmHg 67%
09:00 +29°C° 0 mm 6 mps 742 mmHg 63%
10:00 +29°C° 0 mm 5 mps 742 mmHg 62%
11:00 +30°C° 0 mm 5 mps 742 mmHg 61%
12:00 +32°C° 0 mm 4 mps 742 mmHg 61%
13:00 +32°C° 0 mm 4 mps 742 mmHg 61%
14:00 +32°C° 0 mm 5 mps 742 mmHg 61%
15:00 +32°C° 0 mm 5 mps 743 mmHg 61%
16:00 +30°C° 0.3 mm 4 mps 743 mmHg 65%
17:00 +28°C° 0.3 mm 2 mps 742 mmHg 69%
18:00 +27°C° 0.3 mm 1 mps 742 mmHg 72%
19:00 +25°C° 1.2 mm 2 mps 743 mmHg 79%
20:00 +24°C° 1.2 mm 2 mps 743 mmHg 86%
21:00 +21°C° 1.2 mm 3 mps 743 mmHg 93%
22:00 +21°C° 0.3 mm 3 mps 744 mmHg 92%
23:00 +21°C° 0.3 mm 2 mps 744 mmHg 92%

Tomorrow, 10 July, Friday

Time Temperature Precipitation Wind Pressure Humidity
00:00 +21°C° 0.3 mm 2 mps 744 mmHg 91%
01:00 +20°C° 0.2 mm 2 mps 744 mmHg 93%
02:00 +20°C° 0.2 mm 2 mps 744 mmHg 94%
03:00 +19°C° 0.2 mm 2 mps 744 mmHg 96%
04:00 +19°C° 0.1 mm 2 mps 745 mmHg 95%
05:00 +19°C° 0.1 mm 3 mps 745 mmHg 95%
06:00 +19°C° 0.1 mm 3 mps 745 mmHg 95%
07:00 +19°C° 0.1 mm 4 mps 746 mmHg 94%
08:00 +19°C° 0.1 mm 4 mps 746 mmHg 93%
09:00 +19°C° 0.1 mm 5 mps 747 mmHg 92%
10:00 +20°C° 0 mm 5 mps 747 mmHg 89%
11:00 +20°C° 0 mm 4 mps 747 mmHg 86%
12:00 +21°C° 0 mm 4 mps 747 mmHg 83%
13:00 +22°C° 0 mm 4 mps 748 mmHg 79%
14:00 +22°C° 0 mm 4 mps 748 mmHg 76%
15:00 +23°C° 0 mm 4 mps 748 mmHg 72%
16:00 +23°C° 0 mm 4 mps 748 mmHg 72%
17:00 +22°C° 0 mm 4 mps 748 mmHg 73%
18:00 +22°C° 0 mm 4 mps 749 mmHg 73%
19:00 +20°C° 0 mm 3 mps 749 mmHg 76%
20:00 +19°C° 0 mm 3 mps 749 mmHg 78%
21:00 +17°C° 0 mm 2 mps 750 mmHg 80%
22:00 +17°C° 0 mm 2 mps 750 mmHg 81%
23:00 +16°C° 0 mm 2 mps 750 mmHg 82%

Day after tomorrow, 11 July, Saturday

Time Temperature Precipitation Wind Pressure Humidity
00:00 +16°C° 0 mm 2 mps 750 mmHg 82%
01:00 +15°C° 0 mm 2 mps 750 mmHg 84%
02:00 +15°C° 0 mm 2 mps 751 mmHg 87%
03:00 +15°C° 0 mm 2 mps 751 mmHg 89%
04:00 +16°C° 0 mm 2 mps 751 mmHg 87%
05:00 +17°C° 0 mm 2 mps 751 mmHg 85%
06:00 +18°C° 0 mm 2 mps 751 mmHg 83%
07:00 +19°C° 0 mm 2 mps 751 mmHg 78%
08:00 +21°C° 0 mm 2 mps 752 mmHg 73%
09:00 +22°C° 0 mm 3 mps 752 mmHg 68%
10:00 +24°C° 0 mm 3 mps 752 mmHg 64%
11:00 +25°C° 0 mm 3 mps 752 mmHg 60%
12:00 +26°C° 0 mm 3 mps 752 mmHg 56%
13:00 +26°C° 0 mm 3 mps 751 mmHg 56%
14:00 +26°C° 0 mm 2 mps 751 mmHg 55%
15:00 +26°C° 0 mm 2 mps 751 mmHg 54%
16:00 +26°C° 0 mm 2 mps 751 mmHg 58%
17:00 +26°C° 0 mm 2 mps 751 mmHg 63%
18:00 +26°C° 0 mm 1 mps 751 mmHg 67%
19:00 +24°C° 0 mm 1 mps 751 mmHg 70%
20:00 +22°C° 0 mm 1 mps 751 mmHg 74%
21:00 +20°C° 0 mm 1 mps 751 mmHg 77%
22:00 +19°C° 0 mm 1 mps 751 mmHg 79%
23:00 +18°C° 0 mm 1 mps 751 mmHg 81%

12 July, Sunday

Time Temperature Precipitation Wind Pressure Humidity
00:00 +18°C° 0 mm 1 mps 751 mmHg 83%
01:00 +18°C° 0 mm 1 mps 751 mmHg 84%
02:00 +16°C° 0 mm 1 mps 751 mmHg 84%
03:00 +16°C° 0 mm 1 mps 751 mmHg 85%
04:00 +18°C° 0 mm 1 mps 751 mmHg 83%
05:00 +19°C° 0 mm 1 mps 751 mmHg 81%
06:00 +20°C° 0 mm 1 mps 751 mmHg 79%
07:00 +22°C° 0 mm 1 mps 751 mmHg 74%
08:00 +23°C° 0 mm 2 mps 751 mmHg 70%
09:00 +25°C° 0 mm 2 mps 751 mmHg 66%
10:00 +26°C° 0 mm 2 mps 750 mmHg 62%
11:00 +27°C° 0 mm 2 mps 750 mmHg 59%
12:00 +28°C° 0 mm 2 mps 750 mmHg 56%
13:00 +28°C° 0 mm 2 mps 750 mmHg 56%
14:00 +29°C° 0 mm 2 mps 749 mmHg 56%
15:00 +29°C° 0 mm 2 mps 749 mmHg 57%
16:00 +29°C° 0 mm 2 mps 749 mmHg 62%
17:00 +28°C° 0 mm 2 mps 748 mmHg 67%
18:00 +28°C° 0 mm 3 mps 748 mmHg 73%
19:00 +26°C° 0.2 mm 3 mps 748 mmHg 78%
20:00 +24°C° 0.2 mm 2 mps 748 mmHg 83%
21:00 +21°C° 0.2 mm 2 mps 748 mmHg 88%
22:00 +21°C° 0.1 mm 2 mps 748 mmHg 89%
23:00 +20°C° 0.1 mm 2 mps 748 mmHg 91%

13 July, Monday

Time Temperature Precipitation Wind Pressure Humidity
00:00 +20°C° 0.1 mm 2 mps 748 mmHg 92%
01:00 +20°C° 0 mm 2 mps 747 mmHg 93%
02:00 +19°C° 0 mm 3 mps 747 mmHg 93%
03:00 +19°C° 0 mm 3 mps 747 mmHg 94%
04:00 +20°C° 0.3 mm 3 mps 747 mmHg 93%
05:00 +21°C° 0.3 mm 3 mps 747 mmHg 91%
06:00 +21°C° 0.3 mm 3 mps 746 mmHg 90%
07:00 +24°C° 0.9 mm 3 mps 746 mmHg 87%
08:00 +25°C° 0.9 mm 3 mps 746 mmHg 84%
09:00 +27°C° 0.9 mm 3 mps 746 mmHg 80%
10:00 +28°C° 0.6 mm 3 mps 746 mmHg 74%
11:00 +30°C° 0.6 mm 4 mps 746 mmHg 67%
12:00 +32°C° 0.6 mm 5 mps 745 mmHg 61%
13:00 +32°C° 0.2 mm 5 mps 745 mmHg 62%
14:00 +32°C° 0.2 mm 5 mps 745 mmHg 63%
15:00 +30°C° 0.2 mm 6 mps 744 mmHg 64%
16:00 +29°C° 0.5 mm 5 mps 744 mmHg 69%
17:00 +27°C° 0.5 mm 3 mps 744 mmHg 74%
18:00 +26°C° 0.5 mm 2 mps 743 mmHg 78%
19:00 +25°C° 0.3 mm 3 mps 743 mmHg 80%
20:00 +25°C° 0.3 mm 3 mps 743 mmHg 81%
21:00 +23°C° 0.3 mm 4 mps 743 mmHg 82%
22:00 +22°C° 0.4 mm 4 mps 743 mmHg 84%
23:00 +21°C° 0.4 mm 4 mps 742 mmHg 86%

14 July, Tuesday

Time Temperature Precipitation Wind Pressure Humidity
00:00 +20°C° 0.4 mm 4 mps 742 mmHg 87%
01:00 +20°C° 0 mm 3 mps 742 mmHg 87%
02:00 +19°C° 0 mm 3 mps 742 mmHg 87%
03:00 +19°C° 0 mm 3 mps 742 mmHg 87%
04:00 +20°C° 0 mm 3 mps 742 mmHg 86%
05:00 +20°C° 0 mm 3 mps 742 mmHg 85%
06:00 +21°C° 0 mm 2 mps 742 mmHg 85%
07:00 +23°C° 0.2 mm 2 mps 742 mmHg 82%
08:00 +24°C° 0.2 mm 2 mps 742 mmHg 79%
09:00 +25°C° 0.2 mm 2 mps 742 mmHg 76%
10:00 +27°C° 0 mm 2 mps 741 mmHg 72%
11:00 +28°C° 0 mm 2 mps 741 mmHg 69%
12:00 +29°C° 0 mm 2 mps 741 mmHg 65%
13:00 +29°C° 0 mm 2 mps 741 mmHg 65%
14:00 +29°C° 0 mm 2 mps 741 mmHg 64%
15:00 +30°C° 0 mm 2 mps 741 mmHg 64%
16:00 +28°C° 1.1 mm 2 mps 741 mmHg 71%
17:00 +27°C° 1.1 mm 2 mps 741 mmHg 78%
18:00 +25°C° 1.1 mm 2 mps 741 mmHg 84%
19:00 +24°C° 2.3 mm 2 mps 741 mmHg 87%
20:00 +23°C° 2.3 mm 2 mps 741 mmHg 89%
21:00 +21°C° 2.3 mm 2 mps 741 mmHg 91%
22:00 +20°C° 0.2 mm 2 mps 741 mmHg 92%
23:00 +20°C° 0.2 mm 3 mps 741 mmHg 93%
Show more